Location: Unspecified
(42.9300°N, 71.1866°W)
Time: 07:03:18
(UTC-04:00)

Okean 3 - Visible Passes

Search period start: 30 May 2017 00:00
Search period end: 09 June 2017 00:00
Orbit: 579 x 602 km, 82.5° (Epoch: 29 May)

Date Brightness Start Highest point End Pass type
(mag) Time Alt. Az. Time Alt. Az. Time Alt. Az.
03 Jun 7.0 04:05:13 10° NE 04:06:19 11° ENE 04:07:25 10° E visible
04 Jun 6.6 04:12:08 10° NNE 04:14:47 16° ENE 04:17:26 10° ESE visible
05 Jun 6.2 04:19:47 10° NNE 04:23:13 22° ENE 04:26:37 10° SE visible
06 Jun 5.5 04:27:42 10° N 04:31:36 32° ENE 04:35:27 10° SE visible
